Time,TemperatureF,DewpointF,PressureIn,WindDirection,WindDirectionDegrees,WindSpeedMPH,WindSpeedGustMPH,Humidity,HourlyPrecipIn,Conditions,Clouds,dailyrainin,SolarRadiationWatts/m^2,SoftwareType,DateUTC
2013-03-13 00:02:00,40.7,29.0,30.22,NNW,328,0.0,-999.0,63,-99.99,,,0.00,0,weatherlink.com 1.10,2013-03-13 07:02:00,
2013-03-13 00:18:00,40.4,29.0,30.22,NNW,328,0.0,-999.0,64,-99.99,,,0.00,0,weatherlink.com 1.10,2013-03-13 07:18:00,
2013-03-13 00:33:00,40.0,29.0,30.22,NNW,328,0.0,-999.0,64,-99.99,,,0.00,0,weatherlink.com 1.10,2013-03-13 07:33:00,
2013-03-13 00:48:00,39.8,28.0,30.21,NNW,328,0.0,-999.0,62,-99.99,,,0.00,0,weatherlink.com 1.10,2013-03-13 07:48:00,
2013-03-13 01:03:00,39.9,28.0,30.21,NNW,328,0.0,-999.0,62,-99.99,,,0.00,0,weatherlink.com 1.10,2013-03-13 08:03:00,
2013-03-13 01:18:00,39.8,28.0,30.21,NNW,328,0.0,-999.0,62,-99.99,,,0.00,0,weatherlink.com 1.10,2013-03-13 08:18:00,
2013-03-13 01:33:00,40.0,27.0,30.21,NNW,328,0.0,-999.0,61,-99.99,,,0.00,0,weatherlink.com 1.10,2013-03-13 08:33:00,
2013-03-13 01:48:00,40.1,27.0,30.21,NNW,328,0.0,-999.0,60,-99.99,,,0.00,0,weatherlink.com 1.10,2013-03-13 08:48:00,
2013-03-13 02:03:00,39.8,26.0,30.21,NNW,328,0.0,-999.0,59,-99.99,,,0.00,0,weatherlink.com 1.10,2013-03-13 09:03:00,
2013-03-13 02:18:00,39.8,26.0,30.21,NNW,328,0.0,-999.0,58,-99.99,,,0.00,0,weatherlink.com 1.10,2013-03-13 09:18:00,
2013-03-13 02:33:00,40.2,26.0,30.21,NNW,328,0.0,-999.0,58,-99.99,,,0.00,0,weatherlink.com 1.10,2013-03-13 09:33:00,
2013-03-13 02:48:00,40.1,26.0,30.21,NNW,328,0.0,-999.0,57,-99.99,,,0.00,0,weatherlink.com 1.10,2013-03-13 09:48:00,
2013-03-13 03:03:00,39.8,26.0,30.21,NNW,328,0.0,-999.0,58,-99.99,,,0.00,0,weatherlink.com 1.10,2013-03-13 10:03:00,
2013-03-13 03:18:00,39.4,26.0,30.20,NNW,328,0.0,-999.0,58,-99.99,,,0.00,0,weatherlink.com 1.10,2013-03-13 10:18:00,
2013-03-13 03:33:00,39.0,25.0,30.20,NNW,328,0.0,-999.0,57,-99.99,,,0.00,0,weatherlink.com 1.10,2013-03-13 10:33:00,
2013-03-13 03:48:00,38.8,25.0,30.20,NNW,328,0.0,-999.0,59,-99.99,,,0.00,0,weatherlink.com 1.10,2013-03-13 10:48:00,
2013-03-13 04:03:00,38.6,25.0,30.20,NNW,328,0.0,-999.0,59,-99.99,,,0.00,0,weatherlink.com 1.10,2013-03-13 11:03:00,
2013-03-13 04:18:00,38.5,26.0,30.20,NNW,328,0.0,-999.0,61,-99.99,,,0.00,0,weatherlink.com 1.10,2013-03-13 11:18:00,
2013-03-13 04:33:00,38.4,26.0,30.20,NNW,328,0.0,-999.0,61,-99.99,,,0.00,0,weatherlink.com 1.10,2013-03-13 11:33:00,
2013-03-13 04:48:00,38.1,26.0,30.20,NNW,328,0.0,-999.0,62,-99.99,,,0.00,0,weatherlink.com 1.10,2013-03-13 11:48:00,
2013-03-13 05:03:00,37.6,25.0,30.20,NNW,328,0.0,-999.0,61,-99.99,,,0.00,0,weatherlink.com 1.10,2013-03-13 12:03:00,
2013-03-13 05:18:00,37.0,25.0,30.20,NNW,328,0.0,-999.0,62,-99.99,,,0.00,0,weatherlink.com 1.10,2013-03-13 12:18:00,
2013-03-13 05:33:00,37.0,25.0,30.20,NNW,328,0.0,-999.0,63,-99.99,,,0.00,0,weatherlink.com 1.10,2013-03-13 12:33:00,
2013-03-13 05:48:00,37.8,25.0,30.20,NNW,328,0.0,-999.0,60,-99.99,,,0.00,0,weatherlink.com 1.10,2013-03-13 12:48:00,
2013-03-13 06:03:00,38.7,25.0,30.20,NNW,328,0.0,-999.0,59,-99.99,,,0.00,0,weatherlink.com 1.10,2013-03-13 13:03:00,
2013-03-13 06:18:00,39.2,25.0,30.20,NNW,328,0.0,-999.0,56,-99.99,,,0.00,0,weatherlink.com 1.10,2013-03-13 13:18:00,
2013-03-13 06:33:00,39.3,25.0,30.21,NNW,328,0.0,-999.0,56,-99.99,,,0.00,0,weatherlink.com 1.10,2013-03-13 13:33:00,
2013-03-13 06:48:00,39.2,25.0,30.21,NNW,328,0.0,-999.0,56,-99.99,,,0.00,0,weatherlink.com 1.10,2013-03-13 13:48:00,
2013-03-13 07:03:00,39.1,24.0,30.21,NNW,328,0.0,-999.0,55,-99.99,,,0.00,0,weatherlink.com 1.10,2013-03-13 14:03:00,
2013-03-13 07:18:00,39.5,24.0,30.22,NNW,340,0.0,-999.0,55,-99.99,,,0.00,9,weatherlink.com 1.10,2013-03-13 14:18:00,
2013-03-13 07:33:00,39.7,25.0,30.22,NNW,340,0.0,-999.0,55,-99.99,,,0.00,16,weatherlink.com 1.10,2013-03-13 14:33:00,
2013-03-13 07:48:00,40.3,25.0,30.22,NNW,340,0.0,-999.0,54,-99.99,,,0.00,19,weatherlink.com 1.10,2013-03-13 14:48:00,
2013-03-13 08:03:00,41.1,27.0,30.22,NNE,15,0.0,-999.0,57,-99.99,,,0.00,32,weatherlink.com 1.10,2013-03-13 15:03:00,
2013-03-13 08:18:00,42.6,27.0,30.22,NNE,15,0.0,-999.0,55,-99.99,,,0.00,144,weatherlink.com 1.10,2013-03-13 15:18:00,
2013-03-13 08:33:00,45.7,32.0,30.22,NNE,15,0.0,-999.0,60,-99.99,,,0.00,257,weatherlink.com 1.10,2013-03-13 15:33:00,
2013-03-13 08:48:00,52.8,29.0,30.22,ENE,57,2.0,-999.0,41,-99.99,,,0.00,313,weatherlink.com 1.10,2013-03-13 15:48:00,
2013-03-13 09:03:00,58.3,29.0,30.22,SE,143,2.0,-999.0,33,-99.99,,,0.00,362,weatherlink.com 1.10,2013-03-13 16:03:00,
2013-03-13 09:19:00,61.5,30.0,30.22,East,92,2.0,-999.0,30,-99.99,,,0.00,417,weatherlink.com 1.10,2013-03-13 16:19:00,
2013-03-13 09:34:00,64.7,28.0,30.23,ENE,76,2.0,-999.0,25,-99.99,,,0.00,466,weatherlink.com 1.10,2013-03-13 16:34:00,
2013-03-13 09:49:00,67.0,22.0,30.23,East,98,6.0,-999.0,18,-99.99,,,0.00,512,weatherlink.com 1.10,2013-03-13 16:49:00,
2013-03-13 10:04:00,68.7,21.0,30.23,East,87,3.0,-999.0,16,-99.99,,,0.00,554,weatherlink.com 1.10,2013-03-13 17:04:00,
2013-03-13 10:19:00,70.2,20.0,30.23,ESE,114,1.0,-999.0,15,-99.99,,,0.00,598,weatherlink.com 1.10,2013-03-13 17:19:00,
2013-03-13 10:34:00,71.1,21.0,30.24,East,93,5.0,-999.0,15,-99.99,,,0.00,638,weatherlink.com 1.10,2013-03-13 17:34:00,
2013-03-13 10:49:00,72.0,20.0,30.24,ESE,109,1.0,-999.0,14,-99.99,,,0.00,677,weatherlink.com 1.10,2013-03-13 17:49:00,
2013-03-13 11:04:00,72.5,19.0,30.23,East,96,1.0,-999.0,13,-99.99,,,0.00,708,weatherlink.com 1.10,2013-03-13 18:04:00,
2013-03-13 11:19:00,72.8,19.0,30.23,ESE,103,1.0,-999.0,13,-99.99,,,0.00,735,weatherlink.com 1.10,2013-03-13 18:19:00,
2013-03-13 11:34:00,73.6,18.0,30.23,ENE,76,1.0,-999.0,12,-99.99,,,0.00,761,weatherlink.com 1.10,2013-03-13 18:34:00,
2013-03-13 11:49:00,74.1,18.0,30.23,East,85,4.0,-999.0,12,-99.99,,,0.00,784,weatherlink.com 1.10,2013-03-13 18:49:00,
2013-03-13 12:04:00,74.6,17.0,30.22,East,88,4.0,-999.0,11,-99.99,,,0.00,803,weatherlink.com 1.10,2013-03-13 19:04:00,
2013-03-13 12:19:00,74.6,19.0,30.22,SE,132,2.0,-999.0,12,-99.99,,,0.00,814,weatherlink.com 1.10,2013-03-13 19:19:00,
2013-03-13 12:34:00,75.0,19.0,30.21,ESE,108,5.0,-999.0,12,-99.99,,,0.00,823,weatherlink.com 1.10,2013-03-13 19:34:00,
2013-03-13 12:49:00,75.0,19.0,30.21,East,93,0.0,-999.0,12,-99.99,,,0.00,830,weatherlink.com 1.10,2013-03-13 19:49:00,
2013-03-13 13:04:00,75.4,17.0,30.20,East,87,8.0,-999.0,11,-99.99,,,0.00,830,weatherlink.com 1.10,2013-03-13 20:04:00,
2013-03-13 13:19:00,75.8,20.0,30.19,ESE,102,2.0,-999.0,12,-99.99,,,0.00,826,weatherlink.com 1.10,2013-03-13 20:19:00,
2013-03-13 13:34:00,75.8,18.0,30.19,East,96,6.0,-999.0,11,-99.99,,,0.00,821,weatherlink.com 1.10,2013-03-13 20:34:00,
2013-03-13 13:49:00,76.3,20.0,30.18,East,88,3.0,-999.0,12,-99.99,,,0.00,809,weatherlink.com 1.10,2013-03-13 20:49:00,
2013-03-13 14:05:00,77.0,18.0,30.18,East,97,1.0,-999.0,11,-99.99,,,0.00,793,weatherlink.com 1.10,2013-03-13 21:05:00,
2013-03-13 14:20:00,76.9,16.0,30.17,East,96,4.0,-999.0,10,-99.99,,,0.00,773,weatherlink.com 1.10,2013-03-13 21:20:00,
2013-03-13 14:35:00,76.2,16.0,30.16,East,89,4.0,-999.0,10,-99.99,,,0.00,749,weatherlink.com 1.10,2013-03-13 21:35:00,
2013-03-13 14:50:00,76.7,14.0,30.16,East,90,1.0,-999.0,9,-99.99,,,0.00,721,weatherlink.com 1.10,2013-03-13 21:50:00,
2013-03-13 15:05:00,77.5,17.0,30.15,ENE,77,2.0,-999.0,10,-99.99,,,0.00,693,weatherlink.com 1.10,2013-03-13 22:05:00,
2013-03-13 15:20:00,77.5,17.0,30.15,ENE,76,4.0,-999.0,10,-99.99,,,0.00,657,weatherlink.com 1.10,2013-03-13 22:20:00,
2013-03-13 15:35:00,77.2,16.0,30.15,East,86,6.0,-999.0,10,-99.99,,,0.00,622,weatherlink.com 1.10,2013-03-13 22:35:00,
2013-03-13 15:50:00,76.8,14.0,30.15,SSE,152,6.0,-999.0,9,-99.99,,,0.00,582,weatherlink.com 1.10,2013-03-13 22:50:00,
2013-03-13 16:05:00,76.6,14.0,30.15,ENE,61,5.0,-999.0,9,-99.99,,,0.00,540,weatherlink.com 1.10,2013-03-13 23:05:00,
2013-03-13 16:20:00,77.0,14.0,30.15,East,98,0.0,-999.0,9,-99.99,,,0.00,492,weatherlink.com 1.10,2013-03-13 23:20:00,
2013-03-13 16:50:00,77.1,11.0,30.14,ENE,65,8.0,-999.0,8,-99.99,,,0.00,397,weatherlink.com 1.10,2013-03-13 23:50:00,
2013-03-13 17:05:00,76.7,14.0,30.14,East,93,8.0,-999.0,9,-99.99,,,0.00,348,weatherlink.com 1.10,2013-03-14 00:05:00,
2013-03-13 17:20:00,76.1,13.0,30.13,East,84,2.0,-999.0,9,-99.99,,,0.00,295,weatherlink.com 1.10,2013-03-14 00:20:00,
2013-03-13 17:35:00,75.6,13.0,30.13,East,80,2.0,-999.0,9,-99.99,,,0.00,241,weatherlink.com 1.10,2013-03-14 00:35:00,
2013-03-13 17:50:00,75.4,15.0,30.13,ENE,75,6.0,-999.0,10,-99.99,,,0.00,186,weatherlink.com 1.10,2013-03-14 00:50:00,
2013-03-13 18:05:00,74.9,15.0,30.14,East,96,4.0,-999.0,10,-99.99,,,0.00,107,weatherlink.com 1.10,2013-03-14 01:05:00,
2013-03-13 18:20:00,74.4,18.0,30.14,ENE,78,0.0,-999.0,12,-99.99,,,0.00,69,weatherlink.com 1.10,2013-03-14 01:20:00,
2013-03-13 18:35:00,73.9,20.0,30.14,ENE,78,0.0,-999.0,13,-99.99,,,0.00,28,weatherlink.com 1.10,2013-03-14 01:35:00,
2013-03-13 18:50:00,72.6,21.0,30.14,ENE,78,1.0,-999.0,14,-99.99,,,0.00,11,weatherlink.com 1.10,2013-03-14 01:50:00,
2013-03-13 19:05:00,70.1,20.0,30.14,ENE,78,0.0,-999.0,15,-99.99,,,0.00,0,weatherlink.com 1.10,2013-03-14 02:05:00,
2013-03-13 19:20:00,67.2,21.0,30.14,ENE,78,0.0,-999.0,17,-99.99,,,0.00,0,weatherlink.com 1.10,2013-03-14 02:20:00,
2013-03-13 19:35:00,65.1,24.0,30.14,ENE,78,0.0,-999.0,21,-99.99,,,0.00,0,weatherlink.com 1.10,2013-03-14 02:35:00,
2013-03-13 19:50:00,62.5,25.0,30.15,ENE,78,0.0,-999.0,24,-99.99,,,0.00,0,weatherlink.com 1.10,2013-03-14 02:50:00,
2013-03-13 20:05:00,60.0,27.0,30.15,ENE,78,0.0,-999.0,28,-99.99,,,0.00,0,weatherlink.com 1.10,2013-03-14 03:05:00,
2013-03-13 20:20:00,57.5,26.0,30.16,ENE,78,0.0,-999.0,30,-99.99,,,0.00,0,weatherlink.com 1.10,2013-03-14 03:20:00,
2013-03-13 20:35:00,55.8,26.0,30.16,ENE,78,0.0,-999.0,32,-99.99,,,0.00,0,weatherlink.com 1.10,2013-03-14 03:35:00,
2013-03-13 20:50:00,54.9,26.0,30.16,ENE,78,0.0,-999.0,33,-99.99,,,0.00,0,weatherlink.com 1.10,2013-03-14 03:50:00,
2013-03-13 21:05:00,53.5,26.0,30.16,ENE,78,0.0,-999.0,35,-99.99,,,0.00,0,weatherlink.com 1.10,2013-03-14 04:05:00,
2013-03-13 21:20:00,52.5,25.0,30.17,ENE,78,0.0,-999.0,35,-99.99,,,0.00,0,weatherlink.com 1.10,2013-03-14 04:20:00,
2013-03-13 21:35:00,51.9,25.0,30.17,ENE,78,0.0,-999.0,35,-99.99,,,0.00,0,weatherlink.com 1.10,2013-03-14 04:35:00,
2013-03-13 21:50:00,51.3,25.0,30.17,ENE,78,0.0,-999.0,36,-99.99,,,0.00,0,weatherlink.com 1.10,2013-03-14 04:50:00,
2013-03-13 22:05:00,50.9,25.0,30.18,ENE,78,0.0,-999.0,36,-99.99,,,0.00,0,weatherlink.com 1.10,2013-03-14 05:05:00,
2013-03-13 22:20:00,50.5,24.0,30.18,ENE,78,0.0,-999.0,36,-99.99,,,0.00,0,weatherlink.com 1.10,2013-03-14 05:20:00,
2013-03-13 22:35:00,50.2,25.0,30.18,ENE,78,0.0,-999.0,38,-99.99,,,0.00,0,weatherlink.com 1.10,2013-03-14 05:35:00,
2013-03-13 22:50:00,50.0,24.0,30.18,ENE,78,0.0,-999.0,37,-99.99,,,0.00,0,weatherlink.com 1.10,2013-03-14 05:50:00,
2013-03-13 23:05:00,49.7,24.0,30.18,ENE,78,0.0,-999.0,37,-99.99,,,0.00,0,weatherlink.com 1.10,2013-03-14 06:05:00,
2013-03-13 23:20:00,49.3,24.0,30.18,ENE,78,0.0,-999.0,38,-99.99,,,0.00,0,weatherlink.com 1.10,2013-03-14 06:20:00,
2013-03-13 23:35:00,48.9,25.0,30.17,ENE,78,0.0,-999.0,39,-99.99,,,0.00,0,weatherlink.com 1.10,2013-03-14 06:35:00,
2013-03-13 23:50:00,48.4,25.0,30.17,ENE,78,0.0,-999.0,41,-99.99,,,0.00,0,weatherlink.com 1.10,2013-03-14 06:50:00,